Hourly Weather Icod de los Vinos

Today, 29 November, Sunday

Time Temperature Precipitation Wind Pressure Humidity
00:00 +13°C° 0.7 mm 3 mps 703 mmHg 89%
01:00 +13°C° 0.7 mm 3 mps 703 mmHg 91%
02:00 +13°C° 0.7 mm 4 mps 703 mmHg 93%
03:00 +13°C° 1.4 mm 4 mps 703 mmHg 94%
04:00 +13°C° 1.4 mm 4 mps 703 mmHg 94%
05:00 +13°C° 1.4 mm 4 mps 702 mmHg 95%
06:00 +13°C° 0.1 mm 3 mps 703 mmHg 92%
07:00 +13°C° 0.1 mm 3 mps 703 mmHg 89%
08:00 +14°C° 0.1 mm 2 mps 703 mmHg 86%
09:00 +15°C° 0.1 mm 2 mps 703 mmHg 85%
10:00 +15°C° 0.1 mm 2 mps 703 mmHg 83%
11:00 +15°C° 0.1 mm 2 mps 703 mmHg 82%
12:00 +15°C° 0.1 mm 2 mps 703 mmHg 79%
13:00 +15°C° 0.1 mm 2 mps 702 mmHg 76%
14:00 +16°C° 0.1 mm 2 mps 701 mmHg 73%
15:00 +15°C° 0 mm 2 mps 701 mmHg 77%
16:00 +14°C° 0 mm 2 mps 701 mmHg 80%
17:00 +13°C° 0 mm 2 mps 701 mmHg 83%
18:00 +13°C° 0 mm 2 mps 701 mmHg 82%
19:00 +12°C° 0 mm 3 mps 701 mmHg 80%
20:00 +11°C° 0 mm 3 mps 701 mmHg 79%
21:00 +11°C° 0 mm 4 mps 701 mmHg 79%
22:00 +11°C° 0 mm 4 mps 701 mmHg 79%
23:00 +12°C° 0 mm 5 mps 701 mmHg 80%

Tomorrow, 30 November, Monday

Time Temperature Precipitation Wind Pressure Humidity
00:00 +12°C° 0 mm 5 mps 700 mmHg 83%
01:00 +12°C° 0 mm 5 mps 700 mmHg 86%
02:00 +10°C° 0 mm 5 mps 700 mmHg 89%
03:00 +10°C° 0.1 mm 5 mps 700 mmHg 87%
04:00 +10°C° 0.1 mm 6 mps 699 mmHg 86%
05:00 +10°C° 0.1 mm 6 mps 699 mmHg 85%
06:00 +10°C° 0.2 mm 6 mps 699 mmHg 83%
07:00 +11°C° 0.2 mm 6 mps 700 mmHg 82%
08:00 +11°C° 0.2 mm 6 mps 700 mmHg 81%
09:00 +13°C° 0.3 mm 6 mps 700 mmHg 78%
10:00 +14°C° 0.3 mm 6 mps 701 mmHg 75%
11:00 +15°C° 0.3 mm 6 mps 701 mmHg 72%
12:00 +15°C° 0.1 mm 6 mps 700 mmHg 70%
13:00 +15°C° 0.1 mm 7 mps 700 mmHg 68%
14:00 +16°C° 0.1 mm 8 mps 700 mmHg 65%
15:00 +15°C° 0 mm 7 mps 700 mmHg 67%
16:00 +15°C° 0 mm 6 mps 700 mmHg 68%
17:00 +14°C° 0 mm 6 mps 700 mmHg 70%
18:00 +14°C° 0 mm 6 mps 700 mmHg 75%
19:00 +13°C° 0 mm 5 mps 701 mmHg 79%
20:00 +13°C° 0 mm 5 mps 701 mmHg 84%
21:00 +13°C° 0 mm 5 mps 701 mmHg 83%
22:00 +13°C° 0 mm 5 mps 701 mmHg 82%
23:00 +12°C° 0 mm 5 mps 701 mmHg 82%

Day after tomorrow, 1 December, Tuesday

Time Temperature Precipitation Wind Pressure Humidity
00:00 +12°C° 0 mm 5 mps 701 mmHg 79%
01:00 +12°C° 0 mm 4 mps 701 mmHg 77%
02:00 +12°C° 0 mm 4 mps 701 mmHg 75%
03:00 +12°C° 0 mm 4 mps 701 mmHg 74%
04:00 +12°C° 0 mm 4 mps 701 mmHg 72%
05:00 +12°C° 0 mm 4 mps 701 mmHg 71%
06:00 +12°C° 0 mm 4 mps 701 mmHg 70%
07:00 +13°C° 0 mm 3 mps 702 mmHg 69%
08:00 +14°C° 0 mm 3 mps 702 mmHg 68%
09:00 +15°C° 0.1 mm 4 mps 702 mmHg 66%
10:00 +17°C° 0.1 mm 4 mps 702 mmHg 63%
11:00 +18°C° 0.1 mm 4 mps 703 mmHg 61%
12:00 +18°C° 0.1 mm 4 mps 702 mmHg 62%
13:00 +17°C° 0.1 mm 5 mps 702 mmHg 62%
14:00 +17°C° 0.1 mm 5 mps 702 mmHg 63%
15:00 +16°C° 0.2 mm 5 mps 702 mmHg 67%
16:00 +16°C° 0.2 mm 5 mps 702 mmHg 71%
17:00 +15°C° 0.2 mm 4 mps 702 mmHg 74%
18:00 +15°C° 0.1 mm 4 mps 702 mmHg 74%
19:00 +14°C° 0.1 mm 4 mps 702 mmHg 74%
20:00 +14°C° 0.1 mm 4 mps 703 mmHg 74%
21:00 +14°C° 0.1 mm 4 mps 702 mmHg 74%
22:00 +14°C° 0.1 mm 3 mps 702 mmHg 73%
23:00 +14°C° 0.1 mm 3 mps 702 mmHg 72%

2 December, Wednesday

Time Temperature Precipitation Wind Pressure Humidity
00:00 +13°C° 0.1 mm 3 mps 702 mmHg 71%
01:00 +13°C° 0.1 mm 3 mps 702 mmHg 71%
02:00 +13°C° 0.1 mm 3 mps 702 mmHg 70%
03:00 +13°C° 0.1 mm 3 mps 701 mmHg 72%
04:00 +13°C° 0.1 mm 3 mps 701 mmHg 74%
05:00 +13°C° 0.1 mm 3 mps 701 mmHg 76%
06:00 +14°C° 0.1 mm 3 mps 701 mmHg 72%
07:00 +14°C° 0.1 mm 3 mps 701 mmHg 68%
08:00 +16°C° 0.1 mm 3 mps 701 mmHg 65%
09:00 +17°C° 0 mm 3 mps 702 mmHg 63%
10:00 +18°C° 0 mm 3 mps 702 mmHg 60%
11:00 +18°C° 0 mm 4 mps 702 mmHg 58%
12:00 +18°C° 0 mm 4 mps 701 mmHg 59%
13:00 +18°C° 0 mm 4 mps 701 mmHg 60%
14:00 +18°C° 0 mm 4 mps 701 mmHg 61%
15:00 +18°C° 0 mm 4 mps 701 mmHg 62%
16:00 +17°C° 0 mm 4 mps 701 mmHg 63%
17:00 +17°C° 0 mm 4 mps 701 mmHg 63%
18:00 +16°C° 0.1 mm 3 mps 701 mmHg 66%
19:00 +16°C° 0.1 mm 3 mps 701 mmHg 68%
20:00 +14°C° 0.1 mm 3 mps 701 mmHg 70%
21:00 +14°C° 0.1 mm 3 mps 701 mmHg 73%
22:00 +14°C° 0.1 mm 3 mps 701 mmHg 76%
23:00 +14°C° 0.1 mm 4 mps 701 mmHg 79%

3 December, Thursday

Time Temperature Precipitation Wind Pressure Humidity
00:00 +13°C° 0.1 mm 4 mps 700 mmHg 78%
01:00 +13°C° 0.1 mm 4 mps 700 mmHg 78%
02:00 +13°C° 0.1 mm 4 mps 700 mmHg 77%
03:00 +13°C° 0.1 mm 4 mps 700 mmHg 76%
04:00 +13°C° 0.1 mm 3 mps 700 mmHg 74%
05:00 +13°C° 0.1 mm 3 mps 700 mmHg 73%
06:00 +14°C° 0.1 mm 3 mps 700 mmHg 68%
07:00 +16°C° 0.1 mm 3 mps 700 mmHg 63%
08:00 +16°C° 0.1 mm 3 mps 701 mmHg 59%
09:00 +17°C° 0 mm 3 mps 701 mmHg 58%
10:00 +18°C° 0 mm 3 mps 701 mmHg 57%
11:00 +19°C° 0 mm 3 mps 701 mmHg 56%
12:00 +19°C° 0.1 mm 3 mps 701 mmHg 58%
13:00 +19°C° 0.1 mm 4 mps 701 mmHg 60%
14:00 +19°C° 0.1 mm 4 mps 700 mmHg 63%
15:00 +18°C° 0.2 mm 4 mps 700 mmHg 69%
16:00 +18°C° 0.2 mm 4 mps 700 mmHg 75%
17:00 +17°C° 0.2 mm 3 mps 701 mmHg 81%
18:00 +17°C° 0.1 mm 3 mps 701 mmHg 83%
19:00 +16°C° 0.1 mm 3 mps 701 mmHg 85%
20:00 +16°C° 0.1 mm 3 mps 702 mmHg 87%
21:00 +16°C° 0.2 mm 3 mps 702 mmHg 88%
22:00 +16°C° 0.2 mm 3 mps 702 mmHg 90%
23:00 +14°C° 0.2 mm 3 mps 702 mmHg 91%

4 December, Friday

Time Temperature Precipitation Wind Pressure Humidity
00:00 +14°C° 0.2 mm 3 mps 702 mmHg 89%
01:00 +14°C° 0.2 mm 3 mps 702 mmHg 88%
02:00 +14°C° 0.2 mm 3 mps 702 mmHg 87%
03:00 +14°C° 0.1 mm 3 mps 702 mmHg 87%
04:00 +14°C° 0.1 mm 4 mps 702 mmHg 88%
05:00 +14°C° 0.1 mm 4 mps 702 mmHg 88%
06:00 +14°C° 0.1 mm 4 mps 703 mmHg 85%
07:00 +14°C° 0.1 mm 4 mps 704 mmHg 81%
08:00 +15°C° 0.1 mm 4 mps 704 mmHg 78%
09:00 +15°C° 0.1 mm 4 mps 705 mmHg 77%
10:00 +17°C° 0.1 mm 4 mps 705 mmHg 76%
11:00 +18°C° 0.1 mm 4 mps 705 mmHg 75%
12:00 +18°C° 0.1 mm 4 mps 705 mmHg 76%
13:00 +18°C° 0.1 mm 4 mps 705 mmHg 76%
14:00 +18°C° 0.1 mm 4 mps 705 mmHg 77%
15:00 +16°C° 0.1 mm 5 mps 705 mmHg 76%
16:00 +16°C° 0.1 mm 5 mps 705 mmHg 75%
17:00 +15°C° 0.1 mm 5 mps 705 mmHg 74%
18:00 +15°C° 0.1 mm 5 mps 706 mmHg 77%
19:00 +14°C° 0.1 mm 5 mps 706 mmHg 81%
20:00 +14°C° 0.1 mm 5 mps 707 mmHg 84%
21:00 +14°C° 0 mm 5 mps 707 mmHg 84%
22:00 +14°C° 0 mm 5 mps 707 mmHg 83%
23:00 +13°C° 0 mm 4 mps 707 mmHg 83%
Show more